SCP
0 0 0 0 0 0 0 0 0 0 0 0 0 0 0 0 0 0 0 0 0 0 0 0 0 0 0 0 0 0 0 0 0 0 0 0 0 0 0 0 0 0 0
0 0 0 0 0 0 0 0 0 0 0 0 0 0 0 0 0 0 0 0 0 0 0 0 0 0 0 0 0 0 0 0 0 0 0 0 0 0 0 0 0 0 0
0 0 0 0 0 0 0 0 0 0 0 0 0 0 0 0 0 0 0 0 0 0 0 0 0 0 0 0 0 0 0 0 0 0 0 0 0 0 0 0 0 0 0
0 0 0 0 0 0 0 0 0 0 0 0 0 0 0 0 0 0 0 0 0 0 0 0 0 0 0 0 0 0 0 0 0 0 0 0 0 0 0 0 0 0 0
0 0 0 0 0 0 0 0 0 0 0 0 0 0 0 0 0 0 0 0 0 0 0 0 0 0 0 0 0 0 0 0 0 0 0 0 0 0 0 0 0 0 0
0 0 0 0 0 0 0 0 0 0 0 0 0 0 0 0 0 0 0 0 0 0 0 0 0 0 0 0 0 0 0 0 0 0 0 0 0 0 0 0 0 0 0
0 0 0 0 0 0 0 0 0 0 0 0 0 0 0 0 0 0 0 0 0 0 0 0 0 0 0 0 0 0 0 0 0 0 0 0 0 0 0 0 0 0 0
0 0 0 0 0 0 0 0 0 0 0 0 0 0 0 0 0 0 0 0 0 0 0 0 0 0 0 0 0 0 0 0 0 0 0 0 0 0 0 0 0 0 0
0 0 0 0 0 0 0 0 0 0 0 0 0 0 0 0 0 0 0 0 0 0 0 0 0 0 0 0 0 0 0 0 0 0 0 0 0 0 0 0 0 0 0
0 0 0 0 0 0 0 0 0 0 0 0 0 0 0 0 0 0 0 0 0 0 0 0 0 0 0 0 0 0 0 0 0 0 0 0 0 0 0 0 0 0 0
0 0 0 0 0 0 0 0 0 0 0 0 0 0 0 0 0 0 0 0 0 0 0 0 0 0 0 0 0 0 0 0 0 0 0 0 0 0 0 0 0 0 0
0 0 0 0 0 0 0 0 0 0 0 0 0 0 0 0 0 0 0 0 0 0 0 0 0 0 0 0 0 0 0 0 0 0 0 0 0 0 0 0 0 0 0
0 0 0 0 0 0 0 0 0 0 0 0 0 0 0 0 0 0 0 0 0 0 0 0 0 0 0 0 0 0 0 0 0 0 0 0 0 0 0 0 0 0 0
0 0 0 0 0 0 0 0 0 0 0 0 0 0 0 0 0 0 0 0 0 0 0 0 0 0 0 0 0 0 0 0 0 0 0 0 0 0 0 0 0 0 0
0 0 0 0 0 0 0 0 0 0 0 0 0 0 0 0 0 0 0 0 0 0 0 0 0 0 0 0 0 0 0 0 0 0 0 0 0 0 0 0 0 0 0
0 0 0 0 0 0 0 0 0 0 0 0 0 0 0 0 0 0 0 0 0 0 0 0 0 0 0 0 0 0 0 0 0 0 0 0 0 0 0 0 0 0 0
0 0 0 0 0 0 0 0 0 0 0 0 0 0 0 0 0 0 0 0 0 0 0 0 0 0 0 0 0 0 0 0 0 0 0 0 0 0 0 0 0 0 0
0 0 0 0 0 0 0 0 0 0 0 0 0 0 0 0 0 0 0 0 0 0 0 0 0 0 0 0 0 0 0 0 0 0 0 0 0 0 0 0 0 0 0
0 0 0 0 0 0 0 0 0 0 0 0 0 0 0 0 0 0 0 0 0 0 0 0 0 0 0 0 0 0 0 0 0 0 0 0 0 0 0 0 0 0 0
0 0 0 0 0 0 0 0 0 0 0 0 0 0 0 0 0 0 0 0 0 0 0 0 0 0 0 0 0 0 0 0 0 0 0 0 0 0 0 0 0 0 0
0 0 0 0 0 0 0 0 0 0 0 0 0 0 0 0 0 0 0 0 0 0 0 0 0 0 0 0 0 0 0 0 0 0 0 0 0 0 0 0 0 0 0
0 0 0 0 0 0 0 0 0 0 0 0 0 0 0 0 0 0 0 0 0 0 0 0 0 0 0 0 0 0 0 0 0 0 0 0 0 0 0 0 0 0 0
0 0 0 0 0 0 0 0 0 0 0 0 0 0 0 0 0 0 0 0 0 0 0 0 0 0 0 0 0 0 0 0 0 0 0 0 0 0 0 0 0 0 0
0 0 0 0 0 0 0 0 0 0 0 0 0 0 0 0 0 0 0 0 0 0 0 0 0 0 0 0 0 0 0 0 0 0 0 0 0 0 0 0 0 0 0
0 0 0 0 0 0 0 0 0 0 0 0 0 0 0 0 0 0 0 0 0 0 0 0 0 0 0 0 0 0 0 0 0 0 0 0 0 0 0 0 0 0 0
0 0 0 0 0 0 0 0 0 0 0 0 0 0 0 0 0 0 0 0 0 0 0 0 0 0 0 0 0 0 0 0 0 0 0 0 0 0 0 0 0 0 0
Wind_Speed
3 5 10 11 12 13 13 13 14 13 14 15 16 16 16 16 16 16 16 16 16 16 16 16 16 15 15 15 15 15 15 15 15 17 18 19 20 20 20 19 15 11 17
7 6 10 11 12 12 13 13 13 13 14 15 15 16 16 16 16 16 16 16 15 15 15 15 15 15 14 14 15 15 16 15 14 15 16 16 18 19 19 19 18 13 19
9 7 9 11 12 12 12 12 12 12 14 15 15 15 15 15 15 15 15 15 15 15 15 15 15 15 14 15 16 16 16 16 16 15 13 8 11 18 18 18 18 19 19
10 8 8 11 11 11 11 11 11 12 13 14 15 15 15 15 15 15 15 15 15 15 15 15 15 15 15 16 16 17 17 18 17 15 9 8 8 16 17 17 17 17 18
7 7 8 11 11 11 11 11 11 12 13 14 14 14 14 15 15 14 14 14 15 15 15 15 15 15 15 16 17 18 19 19 18 13 8 7 7 15 16 16 16 16 16
6 6 8 11 11 11 10 11 11 12 12 13 14 14 14 14 14 14 14 14 14 15 15 15 15 15 15 16 17 18 18 18 14 9 8 7 6 14 16 16 15 15 15
6 5 7 10 10 10 10 11 11 11 12 12 13 13 14 14 13 13 13 13 14 14 15 15 15 15 15 17 18 18 18 17 10 8 7 7 8 15 16 15 15 15 15
6 4 4 7 8 9 10 10 11 11 11 12 13 13 14 14 13 13 13 13 14 14 15 15 15 15 15 16 17 18 16 13 10 8 7 7 12 15 15 15 14 14 14
6 5 3 3 4 6 8 10 10 10 10 11 12 12 12 12 12 11 11 12 13 14 14 14 14 14 14 15 16 16 15 15 8 6 7 5 11 14 14 14 14 13 13
6 5 4 3 2 2 4 8 10 10 10 10 11 11 11 11 11 10 9 10 12 13 13 13 13 13 13 14 14 14 13 11 7 6 4 6 13 14 14 14 14 13 13
4 4 3 3 2 1 1 5 7 8 8 9 9 11 10 6 7 7 7 9 10 10 11 11 11 11 11 12 13 13 10 4 6 5 5 11 15 15 15 15 14 14 13
2 2 3 3 2 1 0 2 3 3 3 4 4 6 5 5 4 6 8 8 8 8 8 10 10 9 7 5 7 9 4 6 5 4 6 16 17 17 17 17 16 16 15
2 1 3 3 2 1 1 2 2 2 2 3 4 5 5 5 4 4 3 4 4 4 4 6 6 4 4 4 4 5 5 5 4 4 7 17 19 19 19 19 19 19 18
3 1 2 3 1 0 2 3 3 3 2 2 3 5 5 5 5 4 3 3 3 2 3 3 3 4 5 5 6 6 6 5 4 4 7 17 20 21 21 21 21 21 20
3 1 2 2 1 2 3 3 4 4 4 3 3 4 6 6 6 5 4 4 4 3 3 4 4 5 5 5 6 6 7 7 7 7 7 18 22 23 24 24 23 23 22
4 2 0 1 2 4 5 5 5 5 5 5 5 5 6 6 7 6 6 5 4 4 4 4 5 5 4 4 6 7 7 7 8 9 8 12 22 24 25 25 25 24 24
4 3 2 3 5 7 8 7 6 5 5 6 5 6 7 7 8 7 6 5 4 4 5 5 5 5 5 5 6 7 7 8 9 10 9 8 9 19 24 25 25 25 24
5 4 3 4 7 8 8 8 6 6 6 6 6 6 8 8 8 8 7 6 5 4 5 5 4 5 5 5 5 6 6 7 10 10 9 9 8 9 15 24 24 25 25
6 5 5 6 8 9 9 8 8 7 7 6 6 6 7 8 8 8 7 5 5 5 5 5 5 4 5 5 6 6 6 7 7 9 10 10 9 9 8 16 22 23 24
6 6 7 8 9 10 9 9 8 8 7 6 5 6 8 7 8 9 7 6 6 6 6 5 6 6 4 4 7 8 6 6 6 7 8 8 8 10 9 10 9 13 22
7 7 9 10 10 9 8 6 6 6 5 5 6 7 7 8 8 8 8 7 6 7 6 5 4 7 7 3 4 5 5 5 6 5 5 6 9 9 9 9 8 7 9
10 9 10 11 11 9 6 5 5 6 5 5 5 6 7 7 7 8 8 7 6 7 7 6 5 4 5 5 3 3 2 3 3 4 4 6 7 6 9 10 8 9 8
11 11 10 11 10 9 10 9 9 6 5 4 5 5 6 7 8 8 9 8 7 7 7 6 5 6 5 5 5 3 4 1 2 3 4 5 6 5 6 6 8 9 10
12 9 10 10 10 11 12 13 14 9 7 5 4 5 6 7 8 8 8 8 8 7 7 6 5 4 5 3 4 5 4 3 2 3 4 4 6 5 6 6 6 7 8
10 10 10 10 11 12 10 11 12 9 8 8 6 8 7 6 6 7 7 8 8 7 7 7 7 6 4 4 3 3 4 4 4 2 2 5 5 4 4 4 3 5 6
9 10 11 12 11 11 11 10 12 16 15 14 11 9 7 5 5 6 7 7 7 7 7 7 7 8 6 6 5 3 3 3 2 2 1 2 3 4 5 3 3 4 5
Wind_Direction
152 154 131 121 116 112 111 110 109 106 104 99 94 89 84 80 75 71 67 64 61 59 59 59 58 57 56 54 53 51 52 55 58 59 59 57 54 53 50 47 45 43 49
156 150 130 121 116 114 113 113 112 110 108 103 98 92 88 83 79 73 68 64 60 59 59 58 58 56 52 49 46 44 48 58 66 63 60 57 57 55 52 47 45 44 44
142 140 130 122 118 116 115 114 114 113 112 108 103 98 93 88 83 77 72 66 62 60 59 58 57 55 51 47 43 43 52 63 68 65 58 46 52 56 54 51 48 45 43
141 139 133 127 123 121 119 117 116 116 115 113 108 104 99 94 89 83 77 72 67 63 61 60 59 57 53 50 48 51 61 69 66 60 50 41 43 55 53 52 50 47 45
135 134 138 134 130 128 125 122 121 122 121 119 115 111 106 101 95 89 82 76 71 67 65 63 61 60 57 55 55 60 69 67 63 54 41 36 37 52 52 50 50 49 46
130 133 143 139 136 134 133 130 129 128 128 126 123 119 114 108 103 96 89 82 77 72 69 67 65 63 62 60 61 68 73 68 61 49 38 29 36 50 51 49 48 49 47
121 130 143 141 142 144 144 141 140 137 136 135 132 127 123 119 114 107 98 90 83 79 75 72 69 68 66 65 66 72 76 72 65 52 37 26 40 52 51 48 46 47 46
106 103 120 137 149 152 154 154 152 150 147 144 143 138 134 130 126 119 109 99 92 86 82 77 73 72 70 69 71 74 73 71 65 54 39 24 41 50 49 47 46 45 45
78 79 74 96 131 153 160 164 162 160 156 153 151 147 142 138 135 128 119 108 100 93 88 82 76 74 72 71 73 75 74 70 60 45 37 22 36 46 46 44 43 42 43
65 62 55 55 71 123 164 173 170 167 163 161 157 152 148 146 143 140 131 118 108 101 95 88 81 75 70 68 69 71 70 64 54 43 25 22 35 42 43 39 38 38 38
56 43 38 35 32 47 170 176 172 170 168 162 160 157 151 148 146 146 140 127 116 108 101 94 86 77 67 61 63 65 64 58 55 40 24 31 36 39 38 35 32 31 31
90 30 22 16 355 344 88 146 149 145 146 146 150 157 154 148 145 141 137 124 114 103 94 88 83 76 69 55 54 58 55 55 49 37 31 37 36 37 36 33 29 27 24
130 35 355 348 335 343 88 110 116 112 115 120 136 148 140 133 130 121 115 109 98 86 74 73 69 62 64 61 55 53 53 53 46 36 32 41 39 38 37 33 29 25 21
134 78 345 330 313 133 112 107 109 107 100 100 110 130 131 128 124 116 105 99 88 78 83 72 70 65 62 60 61 58 54 53 49 42 40 45 44 42 40 37 32 28 24
142 110 340 330 179 142 121 110 103 99 96 91 90 110 126 128 125 113 101 88 81 78 82 80 74 69 60 55 56 60 58 58 58 55 47 49 48 44 40 36 33 29 26
158 154 29 47 133 129 116 109 102 96 92 83 79 92 109 117 119 115 105 93 81 78 78 76 74 72 62 59 58 58 62 65 65 63 56 49 49 46 41 36 32 29 26
167 156 125 101 108 111 107 103 97 91 89 84 80 84 98 106 111 111 104 93 82 79 79 74 67 64 60 58 57 59 68 71 72 66 60 54 45 42 40 35 31 27 25
166 157 137 120 113 110 107 102 96 89 86 83 83 86 92 98 105 104 100 92 85 78 74 72 61 64 56 59 65 65 71 74 72 68 62 54 46 39 32 33 29 25 23
171 159 142 130 122 115 107 100 93 88 83 81 81 85 89 91 96 100 97 92 87 79 69 71 58 66 63 66 78 73 68 71 70 68 61 52 44 37 29 26 25 21 19
172 162 149 139 133 125 115 106 96 84 77 74 76 83 91 94 97 99 94 87 86 85 73 70 74 62 61 70 87 75 63 65 67 61 57 48 38 30 23 21 18 14 15
174 167 160 153 150 142 135 128 116 103 92 83 76 79 88 94 95 98 99 88 83 84 80 81 85 68 48 32 83 73 49 52 66 58 51 45 33 22 16 14 12 12 7
180 177 171 166 162 158 140 126 117 116 101 85 83 74 76 89 95 100 99 95 88 88 72 59 71 85 54 27 90 109 78 17 19 37 39 39 27 13 10 6 9 11 10
185 182 176 170 164 149 136 125 119 108 100 89 88 79 69 81 87 96 97 98 89 89 85 70 69 91 95 45 43 104 119 137 324 341 22 31 18 7 359 355 11 13 19
184 176 170 165 157 150 149 147 146 144 138 134 127 110 92 84 90 94 97 98 93 90 88 79 70 79 101 91 54 44 77 118 93 340 337 359 1 354 350 356 3 12 22
172 171 166 158 156 156 158 156 144 133 127 129 122 112 102 90 89 95 98 99 96 93 91 88 80 73 75 91 91 83 68 59 65 99 320 327 334 322 330 340 2 14 23
168 166 164 161 161 160 158 158 149 143 142 142 140 131 122 112 100 98 99 99 100 100 98 95 91 86 83 84 81 79 95 95 78 86 260 296 307 303 314 326 14 19 19